Voltar ao catálogo

QIANFAN-102

AtivoComunicaçõesPO
NORAD 66044·PAYLOAD·🇨🇳 China

Lançado Oct 17, 2025 de Taiyuan Satellite Launch Center

Loading…

Próximas Passagens (próximas 24 horas)

TLE

AtualizadoSource: Space-Track

Época: Sep 14, 2026, 08:23 UTC

1 66044U 25233M   26257.34950523  .00000065  00000-0  82755-4 0  9990
2 66044  89.0049  34.0878 0001742  98.0452 262.0897 13.51027871 45271

Acompanhe QIANFAN-102 em tempo real com AllMySat

Download on the App Store